Regional Weather Roundup
Issued by NWS Wakefield, VA

Home | Current Version | Previous Version | Text Only | Print | Product List | Glossary On
Versions: 1 2 3 4 5 6 7 8 9 10 11 12 13 14 15 16 17 18 19 20 21 22 23 24 25 26 27 28 29 30 31 32 33 34 35 36 37 38 39 40 41 42 43 44 45 46 47 48 49 50
000
ASUS41 KAKQ 270714
RWRAKQ

REGIONAL WEATHER ROUNDUP
NATIONAL WEATHER SERVICE WAKEFIELD VA
300 AM EDT FRI MAR 27 2015

Note: "fair" indicates few or no clouds below 12,000 feet with no
significant weather and/or obstructions to visibility. * = Denotes
station may not report precipitation (e.g., rain,snow,etc.),
thunder or fog.

VAZ042-051-052>054-056-270800-
NORTHERN VIRGINIA

CITY           SKY/WX    TMP DP  RH WIND       PRES   REMARKS
WASH NATIONAL  LGT RAIN  50  44  80 N10       29.77F
DULLES         LGT RAIN  45  40  82 N12       29.78F
FORT BELVOIR   RAIN      47  44  87 NW6       29.79R
QUANTICO       LGT RAIN  48  44  86 NE8       29.80R
FREDERICKSBRG* DRIZZLE   47  47  97 N9G16     29.78S
STAFFORD*      RAIN      46  32  59 N6        29.82F
WARRENTON      RAIN      47  46  99 N6        29.78F
CULPEPER*      HVY RAIN  46  43  87 N5        29.80R
MANASSAS*      CLOUDY    45  45 100 N8        29.77F
LEESBURG*      RAIN      45  43  93 N8        29.79R
WINCHESTER     LGT RAIN  45  36  70 NW13      29.79S
FRONT ROYAL*   CLOUDY    43  37  81 NW6       29.80R
LURAY*         LGT RAIN  46  43  87 CALM      29.80R
$$

VAZ048-049-060>072-079>083-270800-
CENTRAL AND SOUTH CENTRAL VIRGINIA

CITY           SKY/WX    TMP DP  RH WIND       PRES   REMARKS
RICHMOND       LGT RAIN  53  42  66 N14       29.73R
CHESTERFIELD*  CLOUDY    52  36  54 N13G24    29.74R
PETERSBURG*    CLOUDY    60  52  73 N14       29.70R
HANOVER        LGT RAIN  48  44  86 N9G16     29.77R
TAPPAHANNOCK*  LGT RAIN  51  42  71 NW12G18   29.74S
QUINTON*       CLOUDY    54  46  76 N9G18     29.72S
CHARLOTTSVILLE RAIN      47  45  93 CALM      29.77R FOG
GORDONSVILLE*  CLOUDY    45  44  95 NE6       29.77R
ORANGE*        RAIN      46  45  93 N8        29.79R
LOUISA*        DRIZZLE   46  45  93 NE9G16    29.76S
BUMPASS*       CLOUDY    46  43  88 N5        29.77S
FARMVILLE*     LGT RAIN  53  48  83 N13G22    29.72R
CREWE*         CLOUDY    56  47  74 MISG      29.70R
FORT PICKETT*  CLOUDY    63  56  78 NW3       29.68R
CHASE CITY*    CLOUDY    64  59  83 NW7       29.68S
CLARKSVILLE*   PTSUNNY   63  55  77 W3        29.67R
SOUTH HILL*    MOCLDY    61  56  85 S6        29.72S
LAWRENCEVILLE* PTSUNNY   63  58  86 S5        29.66F
EMPORIA*       MOCLDY    63  57  82 SE3       29.69F
$$

VAZ088>098-270800-
SOUTHEAST VIRGINIA

CITY           SKY/WX    TMP DP  RH WIND       PRES   REMARKS
NORFOLK        CLOUDY    63  55  75 SW14      29.67F
VIRGINIA BEACH CLOUDY    67  55  65 SW14      29.67F
NORFOLK NAVAL  NOT AVBL
WEST POINT*    CLOUDY    57  47  69 N9        29.73R
SALUDA*        CLOUDY    54  49  83 N12G17    29.71S
NEWPORT NEWS   NOT AVBL
LANGLEY AFB    DRIZZLE   64  57  77 SW9       29.66F
FORT EUSTIS    CLOUDY    63  58  86 SW7       29.64F
WILLIAMSBURG*  CLOUDY    66  59  77 N8        29.68S
HR EXEC AP*    PTSUNNY   64  55  72 S9G17     29.69F
FRANKLIN*      CLOUDY    64  57  79 S7        29.69F
WAKEFIELD      CLOUDY    65  57  75 S5        29.67F
$$

VAZ020-022-025-037-045-270800-
WEST CENTRAL AND SOUTHWEST VIRGINIA

CITY           SKY/WX    TMP DP  RH WIND       PRES   REMARKS
STAUNTON*      LGT RAIN  45  41  88 N8        29.81R
WAYNESBORO*    CLOUDY    43  42  95 N6        29.78S
HOT SPRINGS VA SNOW      34  34 100 NW12G17   29.74R VSB 1/4
LYNCHBURG      CLOUDY    51  48  89 VRB5      29.75R
DANVILLE       CLOUDY    59  50  72 N13       29.71R
SOUTH BOSTON*  CLOUDY    60  54  79 NW10      29.69S
MARTINSVILLE   CLOUDY    53  41  63 N12       29.77R
ROANOKE        LGT RAIN  47  43  86 NW8       29.80S
BLACKSBURG     DRIZZLE   40  38  91 W5        29.82S
DUBLIN*        DRIZZLE   41  39  91 NW9       29.82F
MARION*        CLOUDY    41  36  82 NW6       29.84F
HILLSVILLE*    LGT RAIN  41  40  94 NW13      29.79S
RICHLANDS*     LGT RAIN  34  33  95 NW3       29.84F
WISE*          DRIZZLE   36  36 100 N8        29.85F
ABINGDON*      DRIZZLE   42  40  92 CALM      29.83F
$$

MDZ021>025-VAZ099-100-270800-
SOUTHERN MARYLAND AND THE DELMARVA PENINSULA

CITY           SKY/WX    TMP DP  RH WIND       PRES   REMARKS
PATUXENT RIVER CLOUDY    49  42  77 N18       29.73S
BAY BRIDGE APT DRIZZLE   43  43 100 N10G16    29.77S
LEONARDTOWN    CLOUDY    46  41  81 N5G20     29.75F
DOVER          CLOUDY    46  46 100 NW13      29.68S
GEORGETOWN     CLOUDY    51  47  86 NW8       29.72S
EASTON         DRIZZLE   47  47 100 N12G17    29.78S
CAMBRIDGE      CLOUDY    50  45  81 N12G21    29.73S
SALISBURY      CLOUDY    53  49  86 N15       29.70S
OCEAN CITY     CLOUDY    53  49  86 N7        29.68S
WALLOPS ISLAND CLOUDY    58  55  90 N9        29.68S
ACCOMACK*      CLOUDY    54  48  82 N14G21    29.69S
$$

NCZ012>017-030>032-270800-
NORTH CENTRAL AND EASTERN NORTH CAROLINA

CITY           SKY/WX    TMP DP  RH WIND       PRES   REMARKS
ROANOKE RAPIDS FAIR      63  55  77 S8        29.68F
RALEIGH        CLOUDY    65  57  75 SW10      29.69F
ELIZABETH CITY CLOUDY    62  56  80 SW13      29.71F
AHOSKIE*       CLOUDY    64  56  77 S5        29.69F
EDENTON*       CLOUDY    62  56  83 SW13      29.72F
CURRITUCK*     CLOUDY    64  55  73 S6        29.71F
KILL DEVIL HLS CLOUDY    65  58  79 SW8G16    29.71F
MANTEO         CLOUDY    63  58  85 SW13      29.73F
CAPE HATTERAS  CLOUDY    64  59  83 W12       29.74F
TARBORO*       FAIR      65  57  75 S7        29.71F
GOLDSBORO      CLOUDY    65  64  98 CALM      29.68F
WASHINGTON     CLOUDY    63  57  82 S7        29.72F
GREENVILLE     CLOUDY    63  55  77 S8        29.74F
NEW BERN       CLOUDY    66  61  84 SW5       29.74F
WILMINGTON     LGT RAIN  65  61  87 SW9       29.74F
$$

VAZ048-270800-
ELSEWHERE

CITY           SKY/WX    TMP DP  RH WIND       PRES   REMARKS
HARRISBURG PA  LGT RAIN  44  38  79 NW7       29.79R
BALTIMORE      LGT RAIN  46  43  89 N6        29.75F
ANNAPOLIS      LGT RAIN  46  43  89 N9        29.76S
ANDREWS AFB    LGT RAIN  46  45  94 N8        29.76S
PHILADELPHIA   LGT RAIN  45  40  82 W13       29.79R
HENDERSON NC   CLOUDY    63  54  73 S8        29.67F
GREENSBORO     CLOUDY    61  53  75 N14G20    29.69R
ROCKY MOUNT    CLOUDY    64  58  80 S8        29.70F
$$

VAZ100-270800-
MARINE

STATION/POSITION TIME  TEMP    WIND        PRES    WAVE   SWELL
                       AIR SEA DIR/SP/G            HT/PER HT/PER
                 (UTC) (F)     (DEG/KT/KT) (MB)    (FT/S) (FT/S)
BRANDYWINE LGT   0630   46 40  330/ 14/ 17 1006.6R
CAPE MAY NJ      0636   45 44  320/  5/ 16 1006.0R
LEWES DE         0600   47 40  330/ 12/ 14 1005.8R
15NM E FENWICK I 0650   47 40              1004.8F   8/11
OCEAN-CITY-INLET 0606   52 40  330/  5/  9 1005.0S
WACHAPREAGUE VA  0600   54 50  220/  8/ 10 1004.6F
THOMAS POINT MD  0700                        N/A
COVE POINT MD    0600   46      10/ 12/ 19 1006.7R
SOLOMONS ISLAND  0618      44                N/A
BISHOPS HEAD MD  0636          340/ 15/ 18 1006.0
PINEY POINT MD   0600          350/ 12/ 13   N/A
CAMBRIDGE MD     0636   48 44  330/ 15/ 19 1007.1R
LEWISETTA VA     0606   52 46              1006.5S
RAPPAHANNOCK LGT 0606          330/ 17/ 18 1006.1R
STINGRAY PT      0700   49 44   30/ 16/ 19   N/A     1/ 2
YORK RVR RNG VA  0618   60     220/ 18/ 19 1004.0F
YORKTOWN VA      0618   64 47  200/  7/ 14 1004.5F
DOMINION TERM VA 0600   60     220/ 10/ 12 1005.5F
KIPTOPEKE VA     0606      49  210/ 11/ 13   N/A
CHES BAY BRIDGE  0606   63 45  190/ 17/ 21 1004.8F
CAPE HENRY VA    0600   66     200/  9/ 17 1004.4F
CHESAPEAKE LGHT  0600   56     210/ 25/ 26 1005.7F
WILLOUBY STN VA  0606   65     200/ 16/ 18 1005.7F
S CRANEY ISL VA  0618          200/  8/ 10 1005.3F
CAPE HENRY BUOY  0628      44                N/A     5/ 8   2/11
1ST LANDING BUOY 0700   60     210/ 14/ 17 1004.4F   2/ 4
OFFSHORE WE BUOY 0611      41                N/A     6/ 8   5/ 8
64NM E OF VA BCH 0650   56 51  210/ 14/ 16 1005.5F   8/ 9   7/ 9
DUCK PIER NC     0618   64 40  220/ 15/ 18 1005.7F
44056 DUCK FRF   0611      42                N/A     4/ 8   2/11
OREGON INLET NC  0600   61 60  220/ 14/ 16 1007.3F
HATTERAS NC      0606   65 60  230/  8/ 10 1008.1F
CAPE LOOKOUT NC  0700   65     220/  8/ 11 1006.8F
$$



USA.gov is the U.S. government's official web portal to all federal, state and local government web resources and services.